(264) Libussa
ephemeris date magn radius delta ra dec elong phase
Opposition17 Aug 202611.92.598 AU1.613 AU22h15m-28°53'163.1°6.5°
Today4 Sep 202612.02.577 AU1.629 AU21h59m-29°45'154.7°9.6°
(264) Libussa - 2026-09-04
astro.vanbuitenen.nl


 
-1 year
-1 month
-1 day
Now
+1 day
+1 month
+1 year

The interactive orbit chart above shows the body's path through the solar system and its position at the given date. Green and blue lines are shown perpendicular to the ecliptic plane: Green if the path is above the ecliptic plane, blue if it is below. (Left-click and drag to rotate the view; Right-click and drag to move the view; Use scroll wheel to zoom in our out.)

The orbital elements of Libussa are:

            e (Eccentricity)                : 0.1349765
            a (Semimajor axis)              : 2.7991430
            i (Inclination)                 : 10.42436
            Ω (Longitude of ascending node) : 49.48389
            ω (Argument of perihelion)      : 340.01197
            M (Mean anomaly)                : 294.03313
            Epoch                           : 2026 Jun 09

            L (Longitude of perihelion)     : 29.80023
            B (Latitude of perihelion)      : -3.54593
            P (Orbital period in years)     : 4.68            
        

The light curve chart below shows the estimated development of the minor planet's magnitude.


The all-sky chart below shows the path of the minor planet over the same period as the light curve. The current position is marked yellow.





The following chart shows the path of the minor planet in the next few days. The field of view is optimized for (~10x50) binoculars and finderscopes.




Ephemerides:
Date       Time       RA (2000)    DEC (2000)    delta   radius  elong  phase   PA    magn
2026-09-04 00:00 UT   21 59 43.7   -29 45 12     1.629    2.577  154.7    9.6    31   12.0 
2026-09-04 02:59 UT   21 59 37.2   -29 45 19     1.629    2.576  154.6    9.7    31   12.0 
2026-09-05 00:00 UT   21 58 52.0   -29 46 06     1.632    2.575  153.8    9.9    32   12.0 
2026-09-06 00:00 UT   21 58 01.0   -29 46 46     1.635    2.574  153.0   10.3    34   12.1 
2026-09-07 00:00 UT   21 57 11.0   -29 47 12     1.639    2.573  152.1   10.6    36   12.1 
2026-09-08 00:00 UT   21 56 21.8   -29 47 24     1.643    2.572  151.2   10.9    37   12.1 
2026-09-09 00:00 UT   21 55 33.7   -29 47 21     1.647    2.571  150.3   11.2    39   12.1 
2026-09-10 00:00 UT   21 54 46.7   -29 47 04     1.651    2.569  149.4   11.5    40   12.1 
2026-09-11 00:00 UT   21 54 00.7   -29 46 32     1.656    2.568  148.4   11.8    42   12.1 
2026-09-12 00:00 UT   21 53 16.0   -29 45 47     1.660    2.567  147.5   12.2    43   12.2 
2026-09-13 00:00 UT   21 52 32.4   -29 44 47     1.665    2.566  146.6   12.5    44   12.2 
2026-09-14 00:00 UT   21 51 50.2   -29 43 33     1.670    2.565  145.6   12.8    45   12.2 
2026-09-15 00:00 UT   21 51 09.3   -29 42 05     1.676    2.563  144.7   13.1    46   12.2 
2026-09-16 00:00 UT   21 50 29.8   -29 40 24     1.681    2.562  143.7   13.4    47   12.2 
2026-09-17 00:00 UT   21 49 51.7   -29 38 29     1.687    2.561  142.8   13.7    48   12.2 
2026-09-18 00:00 UT   21 49 15.1   -29 36 20     1.693    2.560  141.8   14.0    49   12.3 
2026-09-19 00:00 UT   21 48 39.9   -29 33 59     1.699    2.559  140.9   14.3    50   12.3 
2026-09-20 00:00 UT   21 48 06.3   -29 31 24     1.706    2.557  139.9   14.6    51   12.3 
2026-09-21 00:00 UT   21 47 34.3   -29 28 36     1.712    2.556  139.0   14.9    52   12.3 
2026-09-22 00:00 UT   21 47 03.8   -29 25 36     1.719    2.555  138.0   15.2    52   12.3 
2026-09-23 00:00 UT   21 46 35.0   -29 22 23     1.726    2.554  137.1   15.5    53   12.4 
2026-09-24 00:00 UT   21 46 07.7   -29 18 58     1.733    2.553  136.1   15.8    54   12.4 
2026-09-25 00:00 UT   21 45 42.2   -29 15 21     1.741    2.552  135.2   16.1    54   12.4 
2026-09-26 00:00 UT   21 45 18.3   -29 11 33     1.748    2.551  134.2   16.4    55   12.4 
2026-09-27 00:00 UT   21 44 56.1   -29 07 33     1.756    2.549  133.3   16.6    56   12.4 
2026-09-28 00:00 UT   21 44 35.6   -29 03 21     1.763    2.548  132.3   16.9    56   12.4 
2026-09-29 00:00 UT   21 44 16.8   -28 58 59     1.771    2.547  131.4   17.2    57   12.5 
2026-09-30 00:00 UT   21 43 59.8   -28 54 25     1.779    2.546  130.4   17.4    57   12.5 
2026-10-01 00:00 UT   21 43 44.4   -28 49 41     1.788    2.545  129.5   17.7    58   12.5 
2026-10-02 00:00 UT   21 43 30.8   -28 44 47     1.796    2.544  128.6   17.9    58   12.5 
2026-10-03 00:00 UT   21 43 18.9   -28 39 43     1.805    2.543  127.6   18.2    59   12.5 
2026-10-04 00:00 UT   21 43 08.8   -28 34 28     1.813    2.541  126.7   18.4    59   12.5 


    Terminology:
            
    delta:  distance between minor planet and earth in AU
    radius: distance between minor planet and sun in AU
    magn:   magnitude (brightness) estimate    
    ra:     right ascension in hours (24h = 360deg)
    dec:    declination in degrees
    elong:  elongation in degrees (angle sun-earth-minor planet)    
    phase:  phase angle in degrees (angle sun-minor planet-earth)        
    AU:     Astronomical Unit (mean distance between earth and sun: 149597870.7 km
    

Orbital elements provided by the MPC (Minor Planet Center).
Calculations by a modified version of AAPlus, a C# implementation of the AA+ project by PJ Naughter from the algorithms presented in the book "Astronomical Algorithms" by Jean Meeus.
NGC2000 dso catalog and star labels from VizieR as provided by the Strasbourg astronomical Data Center.
Tycho2 catalog from the ESO archive.